Wind_Speed
62 64 66 67 67 65 62 61 60 60 60 61 61 61 62 61 59 53 55 58 55 52 55 57 62 71 70 69 63 64 51 46 46 47 51 55 53 55 62 60 50 58 42 38 41
62 59 58 57 55 53 52 51 51 51 52 52 52 52 54 56 56 56 57 60 58 57 52 56 59 59 64 72 68 64 57 51 55 54 53 55 56 60 59 57 51 51 43 50 45
48 46 46 46 47 49 50 51 52 53 53 54 54 54 54 53 56 61 59 62 61 59 57 56 57 58 58 66 71 68 57 62 60 58 57 60 57 55 59 57 54 63 54 51 48
44 45 45 46 47 49 51 52 53 54 54 53 54 54 56 57 61 58 61 65 66 65 65 62 61 59 60 60 71 70 65 66 66 63 62 59 56 46 58 60 57 62 62 47 54
44 45 47 48 49 49 51 53 53 56 53 54 52 50 47 51 63 62 62 65 68 69 69 69 63 63 59 66 67 67 72 70 70 68 65 64 55 51 58 62 60 60 64 60 50
46 48 50 50 50 51 52 53 52 50 48 49 50 51 51 53 54 57 62 67 70 69 71 70 70 70 67 67 67 69 79 77 74 70 69 66 59 55 54 60 63 62 69 67 60
48 49 51 53 53 52 52 50 49 49 50 53 55 56 59 61 63 63 60 60 68 73 73 72 72 76 69 68 70 73 72 80 76 73 70 71 66 55 55 60 63 64 65 62 65
50 51 51 51 51 48 47 45 46 49 51 52 54 58 62 64 67 68 66 66 67 72 76 79 77 75 72 71 74 74 74 70 76 81 74 79 68 62 61 61 65 70 65 63 55
48 50 47 45 43 45 42 43 47 49 52 54 56 61 65 69 69 72 74 75 74 75 74 79 83 77 79 75 75 72 62 62 77 85 83 83 73 71 67 65 68 69 70 70 60
43 42 41 39 39 41 43 48 52 56 56 60 61 66 68 71 73 78 76 74 79 79 77 76 84 86 83 80 64 60 64 70 75 80 91 87 77 79 75 71 65 72 71 68 71
37 36 37 38 43 43 47 53 61 64 62 64 68 68 67 66 70 72 73 76 80 81 79 82 89 91 77 74 69 71 72 74 77 82 88 91 85 82 82 76 74 69 70 70 70
37 39 43 46 48 50 54 60 63 64 67 70 69 69 67 66 68 71 68 75 74 73 78 87 86 71 78 84 80 78 77 72 78 84 87 86 92 88 89 82 76 73 73 73 69
39 44 47 50 56 58 63 65 70 70 68 68 67 67 68 66 67 58 62 74 72 67 78 83 69 72 87 91 86 82 79 70 72 82 87 86 93 99 91 89 84 78 70 78 73
45 46 49 55 59 64 66 68 66 65 65 66 67 68 66 67 66 52 53 59 67 57 65 78 75 81 87 92 91 87 75 74 75 87 89 88 87 96 94 89 88 82 78 77 75
47 52 54 55 59 63 63 60 64 65 70 69 70 70 69 68 55 51 45 54 50 47 57 57 75 82 85 85 90 79 81 79 76 87 89 91 89 89 94 96 91 86 83 74 77
50 52 54 60 57 57 60 62 65 67 73 77 77 72 68 65 55 43 40 39 41 42 47 51 63 75 83 84 87 84 89 85 82 89 97 91 89 84 83 91 91 91 90 82 75
53 51 52 49 54 58 62 67 70 73 77 78 79 74 64 60 52 37 36 33 35 36 40 46 56 64 75 85 86 94 94 92 90 96 95 88 79 69 73 89 98 95 94 87 77
52 54 49 54 58 62 67 70 74 75 80 82 80 71 61 58 54 35 32 26 28 33 37 46 59 72 82 87 89 92 96 95 92 91 80 74 77 72 75 85 95 96 96 88 85
54 51 53 57 63 67 71 72 75 78 82 83 77 68 60 58 52 35 30 24 23 30 38 48 57 69 74 79 87 92 96 91 93 85 78 83 83 83 79 80 87 93 97 91 85
51 51 57 61 66 70 75 79 81 81 85 86 75 64 55 53 48 36 27 25 21 28 39 47 57 66 75 82 87 90 93 98 100 91 83 82 83 86 83 77 77 82 91 95 87
54 56 59 69 71 75 76 79 81 83 84 88 73 64 56 51 46 35 27 21 20 28 39 42 53 63 76 86 88 90 95 100 100 93 85 80 86 91 88 79 79 80 85 90 95
59 60 65 68 74 76 77 81 80 81 84 84 72 62 57 50 45 39 25 23 19 26 38 45 56 63 72 83 89 90 93 95 95 90 87 82 87 93 92 86 84 85 86 87 95
62 68 67 72 77 74 78 82 80 82 84 79 70 61 55 49 40 39 28 19 19 24 37 47 56 63 74 81 90 91 92 92 92 93 90 82 86 92 93 86 83 80 82 82 83
65 71 74 77 77 77 77 76 79 83 83 76 67 59 53 50 44 35 33 21 19 24 34 49 57 63 70 76 87 91 94 94 93 93 89 91 89 90 91 89 85 82 81 85 84
73 74 76 79 80 73 78 80 80 80 81 73 64 57 52 47 43 38 35 28 19 24 32 46 57 63 70 74 85 92 97 97 97 93 93 95 92 89 90 89 88 87 86 85 84
73 76 79 80 78 79 79 81 82 81 77 71 62 55 52 45 42 37 34 33 26 23 30 42 57 65 70 77 83 91 97 99 101 99 98 93 90 90 88 87 89 89 88 84 83
74 76 79 79 80 79 79 79 83 81 78 71 60 54 52 46 43 41 36 33 34 29 29 40 54 63 72 77 84 92 98 102 104 105 103 96 92 92 97 94 94 92 90 86 82
Wind_Direction
283 283 282 281 282 282 282 281 280 278 276 274 271 271 269 267 264 257 252 253 249 245 247 246 245 241 242 243 241 241 233 231 233 230 229 228 224 219 215 220 211 220 237 232 225
283 284 284 284 283 282 281 281 279 278 277 276 274 272 268 263 261 258 251 249 247 243 241 246 245 242 241 239 238 238 233 232 232 230 228 230 223 218 214 219 209 199 213 212 222
287 287 287 286 286 286 285 285 284 282 281 279 275 272 270 267 262 256 254 252 249 242 241 241 246 244 240 239 235 234 230 229 231 230 228 229 227 218 214 219 209 209 211 210 215
290 291 292 293 291 291 290 287 285 282 280 279 280 277 270 266 261 259 256 253 250 248 240 239 242 242 241 238 235 230 227 228 230 230 231 234 230 217 210 217 211 209 218 215 216
297 297 296 294 292 290 289 289 289 288 284 282 279 276 274 271 264 256 256 256 253 247 245 242 240 241 240 240 237 228 228 226 228 230 231 231 229 220 205 215 210 211 216 213 218
298 299 299 297 297 298 297 296 295 291 289 286 284 281 278 274 270 265 253 253 253 251 246 244 241 238 235 236 237 231 228 225 226 227 230 231 228 225 210 210 213 210 220 219 220
303 303 301 301 300 302 301 298 297 296 293 289 286 284 280 279 276 272 265 255 250 248 249 243 240 240 234 234 235 233 228 225 225 228 229 232 226 225 225 207 216 205 222 222 220
304 304 302 304 304 304 305 304 299 297 296 293 289 284 280 278 276 274 269 262 257 248 243 245 239 236 234 231 232 232 229 226 226 228 228 231 222 224 228 218 215 211 225 222 224
305 304 305 306 309 310 309 306 309 307 303 300 294 289 286 282 279 273 267 262 258 251 244 240 240 234 232 229 230 231 233 227 230 228 227 230 224 225 224 227 214 216 218 226 220
305 309 312 313 312 311 311 308 308 305 303 302 299 297 292 287 282 277 272 266 261 256 249 241 238 235 230 229 229 234 231 226 227 230 228 229 223 226 224 224 220 213 218 223 222
309 315 316 314 313 313 312 312 312 311 306 303 300 296 292 288 285 279 275 265 259 252 248 247 236 233 230 230 223 224 226 224 223 230 227 226 224 225 226 222 226 214 218 222 223
309 311 314 314 314 313 313 311 311 310 307 306 305 301 299 296 289 284 277 269 259 248 244 243 237 233 230 227 222 222 222 222 223 228 229 225 224 225 227 223 222 221 213 225 220
311 312 313 312 313 313 312 314 316 316 315 314 314 308 301 296 294 287 277 266 260 248 242 238 235 232 227 225 222 220 221 221 223 228 230 225 223 224 224 224 223 224 213 217 223
311 313 314 314 314 315 315 317 320 320 320 320 316 311 308 302 302 294 277 263 265 258 242 237 230 226 223 222 221 219 218 219 221 224 227 227 224 223 224 225 225 223 220 213 221
313 314 314 314 315 318 320 321 321 322 326 325 324 319 312 308 310 306 275 270 261 251 240 234 227 223 220 218 221 215 217 217 220 224 225 227 225 221 221 225 225 225 225 214 216
314 316 318 320 327 327 325 326 326 326 329 330 328 325 319 311 312 312 289 278 264 248 236 226 224 220 212 215 219 213 216 216 219 222 224 223 226 221 222 226 227 226 226 220 212
319 322 324 325 329 329 328 330 330 330 331 332 330 325 319 313 316 316 297 279 262 246 233 218 218 217 216 217 216 214 215 216 218 222 223 223 225 222 223 224 226 227 228 223 214
323 323 325 328 330 333 332 331 331 333 331 333 330 329 323 318 319 322 303 286 260 239 222 213 209 211 212 213 213 215 215 217 219 224 223 224 224 220 222 226 224 227 228 224 220
321 321 327 330 332 332 332 332 329 332 332 333 332 331 327 321 321 324 310 296 261 233 219 211 209 210 213 213 217 214 216 215 221 221 221 219 221 221 221 227 225 224 228 226 221
327 326 325 329 330 332 331 332 331 330 332 335 334 332 328 322 322 322 310 297 261 229 219 210 209 206 209 213 217 219 216 215 218 218 218 217 221 223 223 226 228 227 226 228 223
328 327 330 331 331 330 330 331 330 328 331 333 335 334 331 326 324 322 316 297 260 228 215 208 212 210 208 211 213 216 217 217 219 216 215 215 218 222 222 220 223 225 226 222 223
330 332 330 329 329 330 330 329 329 328 330 333 334 334 332 329 326 321 319 297 269 233 213 205 211 210 212 212 214 215 216 219 219 219 220 217 219 222 223 220 224 225 226 226 223
334 333 329 327 328 329 327 328 328 328 331 334 332 333 332 329 328 320 315 296 274 237 216 209 211 212 214 211 215 214 213 218 219 220 220 221 222 225 225 221 224 229 230 228 224
331 330 328 326 327 328 329 328 328 329 333 333 333 333 332 330 327 319 312 303 275 248 221 214 212 214 216 215 214 213 213 214 218 220 221 222 223 225 226 223 222 225 230 229 224
331 329 329 327 329 326 326 326 329 330 332 333 334 332 329 328 325 318 311 302 275 255 232 218 218 215 216 218 218 215 214 215 216 218 220 224 227 226 228 227 225 224 227 230 228
330 329 328 326 327 328 327 328 331 331 332 332 333 331 325 326 320 313 307 299 284 257 243 226 221 220 217 217 218 218 217 216 217 217 216 224 228 230 230 229 229 228 226 229 233
334 331 332 329 330 330 330 330 331 333 332 330 331 328 324 322 317 311 304 294 288 270 244 233 226 222 221 217 217 219 218 217 219 221 218 217 225 231 230 227 226 227 227 226 229
Height
10674 10671 10668 10664 10661 10657 10654 10652 10650 10648 10647 10646 10646 10646 10648 10649 10650 10655 10651 10653 10657 10661 10663 10665 10667 10673 10681 10688 10691 10695 10714 10724 10726 10728 10724 10725 10736 10744 10741 10753 10776 10781 10784 10785 10788
10662 10658 10655 10651 10648 10645 10642 10640 10638 10636 10635 10633 10633 10633 10635 10635 10637 10637 10637 10636 10643 10648 10651 10651 10654 10660 10668 10670 10681 10689 10703 10713 10706 10713 10714 10715 10721 10727 10736 10745 10760 10771 10765 10771 10781
10650 10646 10644 10641 10637 10635 10631 10628 10626 10624 10622 10621 10620 10620 10621 10621 10622 10619 10623 10625 10627 10634 10637 10639 10640 10647 10654 10654 10665 10674 10696 10692 10695 10699 10701 10701 10710 10722 10728 10740 10749 10751 10752 10764 10769
10641 10638 10634 10630 10627 10624 10620 10616 10614 10611 10609 10607 10605 10604 10605 10605 10600 10606 10607 10607 10610 10615 10621 10623 10627 10633 10639 10643 10641 10661 10675 10678 10681 10687 10691 10696 10703 10720 10723 10729 10742 10746 10745 10756 10766
10631 10628 10624 10621 10617 10614 10608 10604 10600 10596 10594 10593 10591 10589 10588 10585 10580 10589 10591 10588 10588 10597 10602 10607 10615 10616 10628 10624 10628 10654 10656 10662 10666 10674 10682 10684 10698 10705 10713 10718 10732 10739 10739 10748 10758
10622 10618 10614 10609 10605 10602 10597 10592 10587 10583 10580 10577 10575 10573 10571 10566 10565 10563 10572 10572 10571 10576 10582 10589 10595 10591 10603 10610 10620 10624 10632 10645 10652 10663 10669 10676 10688 10693 10702 10707 10718 10732 10730 10741 10750
10614 10609 10603 10599 10593 10590 10584 10580 10574 10570 10567 10565 10562 10558 10553 10549 10547 10546 10549 10551 10551 10555 10558 10564 10570 10573 10588 10595 10600 10606 10617 10628 10645 10652 10661 10663 10674 10690 10690 10696 10707 10721 10718 10729 10739
10606 10599 10593 10588 10582 10577 10572 10567 10562 10557 10553 10550 10546 10540 10535 10533 10528 10524 10526 10529 10528 10530 10537 10536 10544 10556 10569 10574 10577 10588 10600 10620 10637 10633 10648 10642 10667 10676 10679 10685 10695 10706 10708 10717 10728
10596 10589 10584 10579 10573 10565 10561 10553 10549 10543 10538 10535 10530 10522 10517 10510 10508 10501 10498 10499 10501 10504 10510 10515 10520 10535 10537 10554 10558 10577 10603 10617 10606 10620 10626 10627 10654 10659 10665 10670 10681 10691 10698 10703 10715
10585 10580 10574 10570 10565 10558 10552 10544 10538 10530 10525 10516 10509 10501 10494 10488 10478 10468 10469 10476 10478 10479 10486 10494 10495 10503 10515 10532 10566 10578 10583 10591 10597 10601 10603 10613 10638 10638 10647 10655 10667 10678 10685 10691 10703
10576 10571 10565 10560 10555 10550 10543 10534 10522 10510 10506 10499 10490 10482 10473 10465 10451 10443 10440 10440 10439 10446 10461 10463 10455 10475 10515 10525 10541 10543 10549 10563 10577 10574 10582 10600 10615 10624 10630 10640 10650 10669 10677 10681 10692
10566 10561 10555 10548 10543 10537 10528 10520 10512 10501 10489 10479 10469 10455 10447 10439 10428 10415 10410 10403 10403 10417 10429 10426 10432 10484 10497 10496 10509 10517 10528 10548 10558 10555 10564 10585 10598 10606 10609 10629 10638 10649 10665 10668 10676
10558 10551 10544 10537 10528 10520 10512 10502 10490 10478 10468 10455 10444 10433 10423 10412 10397 10391 10382 10369 10370 10387 10392 10393 10433 10455 10453 10466 10482 10499 10515 10536 10547 10544 10543 10558 10569 10579 10596 10607 10620 10633 10652 10657 10664
10549 10544 10537 10524 10516 10504 10495 10486 10474 10462 10451 10437 10424 10408 10400 10384 10369 10361 10353 10351 10345 10362 10361 10367 10404 10407 10424 10444 10460 10476 10508 10515 10521 10515 10521 10539 10555 10565 10583 10595 10604 10620 10633 10650 10658
10540 10530 10522 10516 10505 10495 10484 10474 10461 10449 10433 10420 10403 10385 10371 10356 10352 10334 10333 10327 10331 10336 10335 10364 10370 10385 10402 10435 10442 10480 10480 10489 10500 10498 10509 10515 10531 10552 10567 10575 10591 10608 10618 10638 10652
10529 10521 10510 10498 10491 10481 10470 10459 10448 10433 10418 10401 10384 10371 10355 10340 10333 10323 10316 10315 10314 10316 10323 10341 10352 10366 10387 10409 10425 10457 10452 10464 10473 10477 10474 10500 10512 10540 10562 10577 10582 10587 10599 10620 10641
10517 10511 10501 10493 10483 10471 10458 10446 10432 10420 10403 10389 10373 10355 10340 10328 10319 10313 10303 10300 10298 10303 10314 10325 10340 10359 10378 10392 10410 10414 10427 10439 10445 10446 10463 10496 10517 10543 10550 10545 10554 10569 10580 10605 10627
10506 10496 10489 10481 10470 10458 10446 10432 10417 10403 10387 10372 10355 10340 10326 10316 10305 10302 10292 10289 10288 10292 10303 10315 10321 10332 10344 10367 10385 10397 10409 10424 10435 10442 10476 10501 10502 10522 10522 10520 10536 10548 10561 10588 10605
10497 10486 10478 10468 10456 10446 10434 10422 10405 10390 10374 10360 10342 10328 10315 10302 10294 10291 10284 10280 10281 10285 10293 10301 10310 10323 10341 10358 10371 10384 10389 10418 10423 10440 10459 10469 10482 10491 10498 10501 10520 10538 10548 10568 10591
10486 10478 10467 10460 10446 10432 10419 10404 10389 10375 10359 10344 10330 10317 10307 10295 10288 10282 10279 10272 10274 10278 10284 10294 10301 10315 10327 10346 10352 10365 10381 10388 10394 10416 10435 10454 10468 10474 10482 10500 10514 10523 10530 10551 10574
10476 10467 10458 10441 10432 10420 10407 10396 10377 10362 10348 10332 10320 10306 10294 10286 10277 10275 10270 10267 10267 10270 10277 10288 10295 10304 10311 10319 10334 10344 10358 10369 10382 10402 10420 10441 10451 10448 10461 10481 10489 10495 10500 10523 10546
10466 10455 10445 10435 10423 10408 10394 10380 10370 10351 10337 10319 10306 10296 10286 10278 10270 10265 10264 10260 10261 10264 10270 10279 10284 10292 10303 10311 10319 10330 10346 10362 10381 10401 10414 10428 10431 10432 10444 10466 10474 10480 10488 10510 10534
10456 10446 10436 10423 10410 10399 10382 10369 10354 10341 10325 10311 10298 10288 10277 10270 10266 10256 10255 10254 10254 10255 10262 10268 10273 10281 10284 10297 10303 10318 10333 10348 10369 10382 10397 10414 10418 10424 10435 10459 10468 10476 10481 10495 10513
10449 10435 10421 10408 10395 10384 10372 10358 10343 10328 10315 10300 10287 10278 10270 10261 10255 10251 10245 10247 10246 10247 10250 10257 10261 10267 10273 10286 10293 10307 10320 10332 10349 10367 10386 10388 10397 10412 10423 10442 10452 10460 10461 10470 10488
10433 10420 10409 10395 10384 10371 10359 10346 10332 10319 10303 10289 10279 10268 10260 10255 10248 10243 10237 10236 10238 10238 10242 10246 10251 10255 10262 10271 10283 10294 10304 10318 10328 10348 10361 10364 10379 10396 10408 10421 10436 10443 10447 10453 10471
10422 10406 10391 10379 10368 10356 10343 10329 10317 10304 10291 10278 10268 10259 10249 10245 10239 10235 10230 10225 10227 10230 10231 10235 10238 10243 10249 10258 10268 10281 10292 10304 10312 10324 10337 10353 10364 10374 10391 10407 10417 10427 10439 10448 10459
10410 10398 10381 10367 10354 10342 10328 10316 10301 10288 10272 10262 10258 10249 10240 10234 10228 10222 10220 10216 10213 10216 10219 10220 10223 10230 10235 10240 10254 10264 10272 10285 10295 10302 10317 10334 10342 10350 10357 10373 10388 10402 10419 10434 10445